User: anonymous   Login
Location: Arcueil
(48.7999°N, 2.3326°E)
Time: 11:40:14
(UTC+00:00)
Language:

JY1SAT - Orbit

View from above orbital plane
View from above orbital plane
View from above satellite
View from above satellite

Ground track
Ground track

The orbit data is extracted from the following two-line orbital elements,

1 43803U 18099AX  24170.16250166  .00008120  00000-0  53936-3 0  9996
2 43803  97.5208 228.8098 0008220 302.0603  57.9826 15.07438445302849
Epoch (UTC): 18 June 2024 03:54:00
Eccentricity: 0.0008220
inclination: 97.5208°
perigee height: 538 km
apogee height: 550 km
right ascension of ascending node: 228.8098°
argument of perigee: 302.0603°
revolutions per day: 15.07438445
mean anomaly at epoch: 57.9826°
orbit number at epoch: 30284

The dashed part of the orbit path shows where the satellite is in the earth's shadow,  

DLR